Cairo, Egypt

9:23 AM EET on December 14, 2017 (GMT +0200)
Cairo International Airport

Weather History for HECA - March, 2014

Change the Weather History Date:

Wednesday, March 26, 2014

  Actual Average Record
Temperature  
Mean Temperature 69 °F -  
Max Temperature 81 °F 79 °F 87 °F (2001)
Min Temperature 57 °F 57 °F 50 °F (1997)
Cooling Degree Days 4    
Growing Degree Days 19 (Base 50)    
Moisture  
Dew Point 42 °F    
Average Humidity 40    
Maximum Humidity 67    
Minimum Humidity 8    
Precipitation  
Precipitation 0.00 in 0.00 in - ()
Sea Level Pressure  
Sea Level Pressure 30.05 in    
Wind  
Wind Speed 4 mph ()    
Max Wind Speed 12 mph    
Max Gust Speed -    
Visibility 3.9 miles    
Events      
Averages and records for this station are not official NWS values.
T = Trace of Precipitation, MM = Missing Value Source: Averaged Metar Reports

Daily Weather History Graph

Daily Weather History Graph

Search for Another Location

Airport or City:

Trip Planner

Search our weather history database for the weather conditions in past years. The results will help you decide how hot, cold, wet, or windy it might be!

Date:

Astronomy

Mar. 26, 2014 Rise Set
Actual Time 5:51 AM EET 6:09 PM EET
Civil Twilight 5:27 AM EET 6:33 PM EET
Nautical Twilight 4:59 AM EET 7:01 PM EET
Astronomical Twilight 4:31 AM EET 7:29 PM EET
Moon 2:25 AM EET (3/26) 1:42 PM EET (3/26)
Length of Visible Light 13h 05m
Length of Day
12h 18m
Waning Crescent, 24% of the Moon is Illuminated
Mar 26
Waning Crescent
Mar 30
New
Apr 7
First Quarter
Apr 15
Full
Apr 22
Last Quarter

Hourly Weather History & Observations

Time (EET) Temp. Dew Point Humidity Pressure Visibility Wind Dir Wind Speed Gust Speed Precip Events Conditions
12:00 AM 64.4 °F 46.4 °F 52% 30.01 in - SE 5.8 mph - N/A   Clear
12:30 AM 64.4 °F 46.4 °F 52% 30.01 in - Calm Calm - N/A   Clear
1:00 AM 62.6 °F 46.4 °F 55% 30.01 in - Calm Calm - N/A   Clear
1:30 AM 60.8 °F 46.4 °F 59% 30.01 in - Calm Calm - N/A   Clear
2:00 AM 61 °F 47 °F 49% 30.05 in 6 mi Calm Calm - -  
2:00 AM 60.8 °F 46.4 °F 59% 30.01 in - Calm Calm - N/A   Clear
2:30 AM 60.8 °F 46.4 °F 59% 30.01 in - Calm Calm - N/A   Clear
3:00 AM 59.0 °F 46.4 °F 63% 30.01 in - Calm Calm - N/A   Clear
3:30 AM 59.0 °F 46.4 °F 63% 30.01 in - Calm Calm - N/A   Clear
4:00 AM 59.0 °F 46.4 °F 63% 30.01 in - SSE 3.5 mph - N/A   Clear
4:30 AM 59.0 °F 46.4 °F 63% 30.01 in - SSE 3.5 mph - N/A   Clear
5:00 AM 58 °F 46 °F 55% 30.03 in 6 mi Calm Calm - -  
5:00 AM 57.2 °F 46.4 °F 67% 30.01 in - Calm Calm - N/A   Clear
5:30 AM 60.8 °F 42.8 °F 52% 30.01 in - Calm Calm - N/A   Clear
6:00 AM 60.8 °F 46.4 °F 59% 30.04 in - Calm Calm - N/A   Clear
6:30 AM 62.6 °F 48.2 °F 59% 30.06 in - Calm Calm - N/A   Clear
7:00 AM 62.6 °F 48.2 °F 59% 30.06 in - Calm Calm - N/A   Clear
7:30 AM 62.6 °F 48.2 °F 59% 30.06 in 3.7 mi Calm Calm - N/A   Unknown
8:00 AM 66 °F 49 °F 45% 30.09 in 2 mi Calm Calm - -   Haze
8:00 AM 66.2 °F 50.0 °F 56% 30.06 in 2.5 mi Calm Calm - N/A   Haze
8:30 AM 68.0 °F 48.2 °F 49% 30.06 in 1.9 mi Calm Calm - N/A   Haze
9:00 AM 69.8 °F 46.4 °F 43% 30.09 in 1.9 mi Calm Calm - N/A   Haze
9:30 AM 73.4 °F 41.0 °F 31% 30.09 in 1.9 mi Calm Calm - N/A   Haze
10:00 AM 73.4 °F 30.2 °F 20% 30.09 in 1.9 mi Calm Calm - N/A   Haze
10:30 AM 75.2 °F 32.0 °F 21% 30.06 in 2.5 mi NE 5.8 mph - N/A   Haze
11:00 AM 76 °F 32 °F 11% 30.06 in 4 mi NNE 9.2 mph - -   Haze
11:00 AM 75.2 °F 32.0 °F 21% 30.06 in 3.7 mi NNE 9.2 mph - N/A   Unknown
11:30 AM 77.0 °F 33.8 °F 21% 30.06 in - NNE 9.2 mph - N/A   Clear
12:00 PM 78.8 °F 32.0 °F 18% 30.06 in - North 5.8 mph - N/A   Clear
12:30 PM 78.8 °F 32.0 °F 18% 30.06 in - NNE 4.6 mph - N/A   Clear
1:00 PM 80.6 °F 30.2 °F 16% 30.04 in - Calm Calm - N/A   Clear
1:30 PM 80.6 °F 30.2 °F 16% 30.04 in - North 3.5 mph - N/A   Clear
2:00 PM 81 °F 31 °F 8% 30.02 in 6 mi North 6.9 mph - -  
2:00 PM 80.6 °F 30.2 °F 16% 30.04 in - North 6.9 mph - N/A   Clear
2:30 PM 80.6 °F 33.8 °F 18% 30.01 in - NNW 9.2 mph - N/A   Clear
3:00 PM 80.6 °F 35.6 °F 20% 30.01 in - NNW 9.2 mph - N/A   Clear
3:30 PM 80.6 °F 32.0 °F 17% 30.01 in - North 8.1 mph - N/A   Clear
4:00 PM 80.6 °F 33.8 °F 18% 30.01 in - North 9.2 mph - N/A   Clear
4:30 PM 80.6 °F 33.8 °F 18% 30.01 in - North 8.1 mph - N/A   Clear
5:00 PM 80 °F 36 °F 11% 30.02 in 6 mi North 10.4 mph - -  
5:00 PM 78.8 °F 35.6 °F 21% 30.04 in - North 10.4 mph - N/A   Clear
5:30 PM 78.8 °F 41.0 °F 26% 30.04 in - NNW 11.5 mph - N/A   Clear
6:00 PM 77.0 °F 42.8 °F 29% 30.04 in - North 11.5 mph - N/A   Clear
6:30 PM 77.0 °F 42.8 °F 29% 30.04 in - North 11.5 mph - N/A   Clear
7:00 PM 75.2 °F 42.8 °F 31% 30.04 in - North 10.4 mph - N/A   Clear
7:30 PM 75.2 °F 42.8 °F 31% 30.06 in - NNE 10.4 mph - N/A   Clear
8:00 PM 73 °F 46 °F 27% 30.08 in 6 mi NNE 10.4 mph - -  
8:00 PM 73.4 °F 46.4 °F 38% 30.06 in - NNE 10.4 mph - N/A   Clear
8:30 PM 69.8 °F 50.0 °F 49% 30.06 in - NE 10.4 mph - N/A   Clear
9:00 PM 69.8 °F 51.8 °F 53% 30.06 in - NE 10.4 mph - N/A   Clear
9:30 PM 68.0 °F 51.8 °F 56% 30.09 in - ENE 11.5 mph - N/A   Clear
10:00 PM 68.0 °F 50.0 °F 52% 30.09 in - ENE 11.5 mph - N/A   Clear
10:30 PM 68.0 °F 50.0 °F 52% 30.09 in - ENE 11.5 mph - N/A   Clear
11:00 PM 65 °F 51 °F 52% 30.11 in 6 mi ENE 10.4 mph - -  
11:00 PM 66.2 °F 51.8 °F 60% 30.09 in - ENE 10.4 mph - N/A   Clear
11:30 PM 64.4 °F 48.2 °F 56% 30.09 in - ENE 11.5 mph - N/A   Clear